This demonstration page uses our WeatherBlox Daily Observations layout. Learn more.

Left ArrowRight Arrow

39.51506, -84.39828

Hourly Observations for March 24, 2018

Temp ( °F °C ) Dew Point ( °F °C ) Humidity (%) Winds ( mph kmh ) Pressure ( in mb ) Visibility ( mi km ) Precip ( " mm )
12:15 am 00:15 Clear 28 -2.2 22 -5.5 78 78 N 3 6 30.3 1026 10 16.0934 N/A
12:35 am 00:35 Clear 29 -1.9 23 -4.8 81 81 NNE 3 6 30.3 1026 10 16.0934 N/A
12:55 am 00:55 Clear 29 -1.9 24 -4.6 82 82 N 3 6 30.3 1026 10 16.0934 N/A
1:15 am 01:15 Clear 28 -2 24 -4.6 83 83 NNE 7 11 30.3 1026 10 16.0934 N/A
1:35 am 01:35 Clear 28 -2.1 24 -4.7 83 83 NNE 6 9 30.3 1026 10 16.0934 N/A
1:55 am 01:55 Clear 30 -1.1 24 -4.7 77 77 NNE 7 11 30.3 1026 10 16.0934 N/A
2:15 am 02:15 Clear 31 -0.3 24 -4.7 73 73 ENE 9 15 30.3 1026 10 16.0934 N/A
2:35 am 02:35 Clear 32 undefined 23 -5.2 68 68 ENE 8 13 30.3 1026 10 16.0934 N/A
2:55 am 02:55 Clear 32 0.1 22 -5.4 67 67 ENE 10 17 30.27 1025 10 16.0934 N/A
3:15 am 03:15 Clear 32 0.2 23 -5.1 68 68 ENE 10 17 30.27 1025 10 16.0934 N/A
3:35 am 03:35 Clear 33 0.5 22 -5.5 64 64 ENE 7 11 30.3 1026 10 16.0934 N/A
3:55 am 03:55 Clear 33 0.7 22 -5.5 64 64 ENE 7 11 30.3 1026 10 16.0934 N/A
4:15 am 04:15 Clear 33 0.7 22 -5.6 63 63 ENE 6 9 30.3 1026 10 16.0934 N/A
4:35 am 04:35 Clear 33 0.5 22 -5.4 65 65 ENE 6 9 30.3 1026 10 16.0934 N/A
4:55 am 04:55 Clear 33 0.4 22 -5.5 65 65 ENE 7 11 30.27 1025 10 16.0934 N/A
5:15 am 05:15 Clear 32 0.2 22 -5.5 66 66 ENE 8 13 30.27 1025 10 16.0934 N/A
5:35 am 05:35 Clear 33 0.6 21 -5.9 62 62 ENE 6 9 30.27 1025 10 16.0934 N/A
5:55 am 05:55 Clear 33 0.5 22 -5.8 63 63 ENE 7 11 30.27 1025 10 16.0934 N/A
6:15 am 06:15 Partly Cloudy 33 0.6 22 -5.8 63 63 ENE 8 13 30.3 1026 10 16.0934 N/A
6:35 am 06:35 Cloudy 33 0.5 22 -5.4 65 65 ENE 9 15 30.27 1025 10 16.0934 N/A
6:55 am 06:55 Cloudy 33 0.5 22 -5.7 64 64 E 8 13 30.27 1025 10 16.0934 N/A
7:15 am 07:15 Cloudy 33 0.5 22 -5.7 64 64 E 8 13 30.27 1025 10 16.0934 N/A
7:35 am 07:35 Cloudy 33 0.6 22 -5.7 63 63 ENE 10 17 30.27 1025 10 16.0934 N/A
7:55 am 07:55 Cloudy 33 0.6 22 -5.7 63 63 ENE 10 17 30.27 1025 10 16.0934 N/A
8:15 am 08:15 Cloudy 33 0.6 22 -5.5 64 64 ENE 9 15 30.27 1025 10 16.0934 N/A
8:35 am 08:35 Cloudy 33 0.7 22 -5.5 64 64 E 9 15 30.27 1025 10 16.0934 N/A
8:55 am 08:55 Cloudy 33 0.7 22 -5.5 64 64 E 7 11 30.27 1025 10 16.0934 N/A
9:15 am 09:15 Cloudy 33 0.7 22 -5.4 64 64 E 9 15 30.27 1025 10 16.0934 N/A
9:35 am 09:35 Cloudy 33 0.7 22 -5.5 64 64 E 13 20 30.24 1024 10 16.0934 N/A
9:55 am 09:55 Cloudy 34 1 23 -5 65 65 E 13 20 30.24 1024 10 16.0934 N/A
10:15 am 10:15 Cloudy 34 1 23 -5 65 65 E 10 17 30.24 1024 10 16.0934 N/A
10:35 am 10:35 Cloudy 34 1 22 -5.3 63 63 E 13 20 30.24 1024 10 16.0934 N/A
10:55 am 10:55 Cloudy 34 1.1 22 -5.4 62 62 E 13 20 30.24 1024 10 16.0934 N/A
11:15 am 11:15 Cloudy 35 1.5 22 -5.6 60 60 E 8 13 30.24 1024 10 16.0934 N/A
11:35 am 11:35 Cloudy 35 1.6 22 -5.7 59 59 E 7 11 30.24 1024 10 16.0934 N/A
11:55 am 11:55 Cloudy 35 1.7 22 -5.5 59 59 E 10 17 30.24 1024 10 16.0934 N/A
12:15 pm 12:15 Cloudy 35 1.6 22 -5.6 59 59 E 8 13 30.24 1024 10 16.0934 N/A
12:35 pm 12:35 Cloudy 35 1.7 22 -5.3 60 60 E 10 17 30.21 1023 10 16.0934 N/A
12:55 pm 12:55 Cloudy 36 2 22 -5.3 59 59 E 12 19 30.21 1023 10 16.0934 N/A
1:15 pm 13:15 Cloudy 36 2.2 23 -5.1 59 59 E 13 20 30.21 1023 10 16.0934 N/A
1:35 pm 13:35 Cloudy 36 2.3 23 -5.1 58 58 E 15 24 30.21 1023 10 16.0934 N/A
1:55 pm 13:55 Cloudy 36 2.3 23 -5.2 58 58 E 13 20 30.18 1022 10 16.0934 N/A
2:15 pm 14:15 Cloudy 36 2.4 23 -5.2 58 58 E 10 17 30.18 1022 10 16.0934 N/A
2:35 pm 14:35 Cloudy 36 2.4 22 -5.3 57 57 E 14 22 30.18 1022 10 16.0934 N/A
2:55 pm 14:55 Cloudy with Light Rain 34 1.2 24 -4.2 68 68 E 22 35 30.15 1021 2.5 4.02335 N/A
3:15 pm 15:15 Cloudy with Light Snow 33 0.8 26 -3.3 74 74 ESE 8 13 30.12 1020 7 11.26538 N/A
3:35 pm 15:35 Cloudy 35 1.8 26 -3.6 68 68 E 14 22 30.12 1020 10 16.0934 N/A
3:55 pm 15:55 Cloudy with Nearby Thunderstorms 37 2.8 24 -4.2 60 60 E 6 9 30.15 1021 10 16.0934 N/A
4:15 pm 16:15 Cloudy 37 3 24 -4.4 59 59 ESE 8 13 30.12 1020 10 16.0934 N/A
4:35 pm 16:35 Cloudy 35 1.9 29 -1.9 76 76 SSW 9 15 30.15 1021 10 16.0934 N/A
4:55 pm 16:55 Cloudy 35 1.6 27 -2.6 74 74 SE 3 6 30.12 1020 10 16.0934 N/A
5:15 pm 17:15 Cloudy 35 1.7 27 -2.6 73 73 N N/A 30.15 1021 10 16.0934 N/A
5:35 pm 17:35 Cloudy 36 2 28 -2.3 73 73 N N/A 30.15 1021 10 16.0934 N/A
5:55 pm 17:55 Cloudy 38 3.6 24 -4.6 55 55 ENE 13 20 30.12 1020 10 16.0934 N/A
6:15 pm 18:15 Cloudy 39 3.8 24 -4.7 54 54 ENE 14 22 30.12 1020 10 16.0934 N/A
6:35 pm 18:35 Cloudy 38 3.6 23 -5.1 53 53 ENE 17 28 30.09 1019 10 16.0934 N/A
6:55 pm 18:55 Cloudy 38 3.6 22 -5.6 51 51 ENE 17 28 30.09 1019 10 16.0934 N/A
7:15 pm 19:15 Cloudy 39 3.7 21 -5.9 50 50 ENE 15 24 30.12 1020 10 16.0934 N/A
7:35 pm 19:35 Cloudy 39 3.8 22 -5.8 50 50 NE 12 19 30.15 1021 10 16.0934 N/A
7:55 pm 19:55 Cloudy 39 3.8 21 -5.9 50 50 NE 8 13 30.15 1021 10 16.0934 N/A
8:15 pm 20:15 Cloudy 39 3.8 22 -5.8 50 50 NE 9 15 30.15 1021 10 16.0934 N/A
8:35 pm 20:35 Cloudy 38 3.6 22 -5.4 52 52 NE 8 13 30.15 1021 10 16.0934 N/A
8:55 pm 20:55 Clear 38 3.6 22 -5.3 53 53 NE 7 11 30.15 1021 10 16.0934 N/A
9:15 pm 21:15 Clear 38 3.5 23 -5.1 54 54 NE 6 9 30.15 1021 10 16.0934 N/A
9:35 pm 21:35 Clear 38 3.4 23 -4.9 55 55 NE 6 9 30.15 1021 10 16.0934 N/A
9:55 pm 21:55 Clear 38 3.5 23 -4.8 55 55 NE 6 9 30.15 1021 10 16.0934 N/A
10:15 pm 22:15 Clear 39 3.8 24 -4.5 55 55 NE 15 24 30.18 1022 10 16.0934 N/A
10:35 pm 22:35 Clear 38 3.1 26 -3.6 62 62 NNE 16 26 30.18 1022 10 16.0934 N/A
10:55 pm 22:55 Clear 37 2.7 25 -3.9 62 62 NNE 16 26 30.18 1022 10 16.0934 N/A
11:15 pm 23:15 Clear 36 2.3 24 -4.3 62 62 NNE 12 19 30.18 1022 10 16.0934 N/A
11:35 pm 23:35 Clear 35 1.8 23 -5 61 61 NE 14 22 30.18 1022 10 16.0934 N/A
11:55 pm 23:55 Clear 35 1.6 21 -6.3 56 56 NE 16 26 30.18 1022 10 16.0934 N/A

Powered by AerisWeather